This is the latest recevied weather packets stored in our database for station/object F5PHW-13. If no packets are shown the sender has not sent any weather packets the latest 10 day(s).
| Time | Temp. | Humidity | Pressure | Rain* | Wind** | Luminosity | Snow |
|---|---|---|---|---|---|---|---|
| 1777619477 | 13.33° C | 87% | 1019 hPa | 0 mm | - | - | - |
| 1777618277 | 13.33° C | 87% | 1018.9 hPa | 0 mm | - | - | - |
| 1777617077 | 13.33° C | 88% | 1018.9 hPa | 0 mm | - | - | - |
| 1777615877 | 12.78° C | 88% | 1018.9 hPa | 0 mm | - | - | - |
| 1777614677 | 12.78° C | 87% | 1018.7 hPa | 0 mm | - | - | - |
| 1777613477 | 12.78° C | 87% | 1018.7 hPa | 0 mm | - | - | - |
| 1777612277 | 12.78° C | 87% | 1018.5 hPa | 0 mm | - | - | - |
| 1777611077 | 12.78° C | 87% | 1018.4 hPa | 0 mm | - | - | - |
| 1777609877 | 12.78° C | 87% | 1018.3 hPa | 0 mm | - | - | - |
| 1777608677 | 12.22° C | 87% | 1018.2 hPa | 0 mm | - | - | - |
| 1777607477 | 12.22° C | 87% | 1018 hPa | 0 mm | - | - | - |
| 1777606277 | 12.22° C | 87% | 1017.9 hPa | 0 mm | - | - | - |
| 1777605077 | 12.22° C | 86% | 1017.9 hPa | 0 mm | - | - | - |
| 1777603877 | 12.22° C | 86% | 1017.8 hPa | 0 mm | - | - | - |
| 1777602677 | 12.22° C | 86% | 1017.6 hPa | 0 mm | - | - | - |
| 1777601477 | 12.22° C | 85% | 1017.7 hPa | 0 mm | - | - | - |
| 1777600277 | 12.78° C | 85% | 1017.7 hPa | 0 mm | - | - | - |
| 1777599077 | 12.78° C | 85% | 1017.7 hPa | 0 mm | - | - | - |
| 1777597877 | 13.33° C | 84% | 1017.6 hPa | 0 mm | - | - | - |
| 1777596677 | 13.33° C | 84% | 1017.6 hPa | 0 mm | - | - | - |
| 1777595476 | 13.89° C | 84% | 1017.5 hPa | 0 mm | - | - | - |
| 1777594276 | 13.89° C | 84% | 1017.4 hPa | 0 mm | - | - | - |
| 1777593077 | 13.89° C | 84% | 1017.5 hPa | 0 mm | - | - | - |
| 1777591876 | 13.89° C | 84% | 1017.4 hPa | 0 mm | - | - | - |
| 1777590676 | 14.44° C | 84% | 1017.3 hPa | 0 mm | - | - | - |
* Rain latest hour (hover to see other rain measurements)
** Current wind speed in m/s (hover to see current wind gust speed)